RPA7110 KCLT-KBHM

Flight info

Callsign RPA7110
Flight time N/A
Altitude 34000
Route ESTRR5 IPTAY CHOPZ THRSR KIOSK
Aircraft CRJ7/M-SDFGIRWY/S

Departure

Time 2026-05-05 19:13
Airport Charlotte Douglas International Airport (KCLT)

Arrival

Time N/A
Airport Birmingham-Shuttlesworth International Airport (KBHM)
Time Latitude Longitude Altitude Speed Heading
2026-05-05 18:42 35.22524 -80.93945 731 ft 0 kts 266°
2026-05-05 19:08 35.22526 -80.93951 730 ft 4 kts 299°
2026-05-05 19:08 35.22575 -80.93963 730 ft 5 kts 34°
2026-05-05 19:08 35.22579 -80.93958 730 ft 0 kts 67°
2026-05-05 19:09 35.22573 -80.93943 730 ft 9 kts 118°
2026-05-05 19:09 35.22533 -80.93861 731 ft 12 kts 121°
2026-05-05 19:09 35.22503 -80.93774 731 ft 8 kts 97°
2026-05-05 19:09 35.22503 -80.93745 732 ft 0 kts 86°
2026-05-05 19:10 35.22506 -80.93701 733 ft 10 kts 86°
2026-05-05 19:10 35.22503 -80.93639 734 ft 3 kts 128°
2026-05-05 19:10 35.22488 -80.93625 734 ft 3 kts 159°
2026-05-05 19:11 35.22455 -80.93618 734 ft 7 kts 173°
2026-05-05 19:11 35.22408 -80.93613 732 ft 3 kts 175°
2026-05-05 19:11 35.22404 -80.93612 732 ft 1 kts 175°
2026-05-05 19:11 35.22381 -80.93610 734 ft 13 kts 175°
2026-05-05 19:12 35.22101 -80.93587 734 ft 67 kts 176°
2026-05-05 19:12 35.21467 -80.93532 733 ft 113 kts 176°
2026-05-05 19:12 35.20557 -80.93450 748 ft 145 kts 181°
2026-05-05 19:12 35.19511 -80.93341 1051 ft 150 kts 180°
2026-05-05 19:13 35.18451 -80.93329 1413 ft 158 kts 181°
2026-05-05 19:13 35.17339 -80.93165 1888 ft 161 kts 176°
2026-05-05 19:13 35.16233 -80.92936 2340 ft 161 kts 174°
2026-05-05 19:13 35.15123 -80.92732 2750 ft 162 kts 176°
2026-05-05 19:14 35.14005 -80.92568 3181 ft 163 kts 174°
2026-05-05 19:14 35.12889 -80.92315 3587 ft 163 kts 171°
2026-05-05 19:14 35.11777 -80.92030 4049 ft 164 kts 171°
2026-05-05 19:14 35.10660 -80.91728 4477 ft 165 kts 171°
2026-05-05 19:15 35.09540 -80.91416 4877 ft 165 kts 173°
2026-05-05 19:15 35.08403 -80.91273 5286 ft 164 kts 184°
2026-05-05 19:15 35.07392 -80.91829 5582 ft 167 kts 223°
2026-05-05 19:15 35.06410 -80.92553 5833 ft 172 kts 186°
2026-05-05 19:16 35.05200 -80.92542 6150 ft 175 kts 194°
2026-05-05 19:16 35.04292 -80.93466 6408 ft 181 kts 246°
2026-05-05 19:16 35.04067 -80.94999 6743 ft 186 kts 259°
2026-05-05 19:16 35.03953 -80.96584 7045 ft 194 kts 262°
2026-05-05 19:17 35.03882 -80.98325 7262 ft 215 kts 263°
2026-05-05 19:17 35.03823 -81.00208 7699 ft 226 kts 264°
2026-05-05 19:17 35.03774 -81.02178 8027 ft 242 kts 265°
2026-05-05 19:17 35.03725 -81.04300 8279 ft 258 kts 265°
2026-05-05 19:18 35.03672 -81.06502 8782 ft 261 kts 265°
2026-05-05 19:18 35.03621 -81.08727 9327 ft 263 kts 265°
2026-05-05 19:18 35.03570 -81.10965 9871 ft 265 kts 265°
2026-05-05 19:18 35.03522 -81.13217 10342 ft 267 kts 265°